[[{"header":{"parameterUnit":"m.s-1","parameterCategory":1,"la1":30.2992,"la2":30.254,"lo1":-89.0895,"lo2":-89.0443,"dy":0.0025,"dx":0.0025,"nx":19,"ny":19,"refTime":"2026-05-17T09:00:00:Z","depth":0,"parameterNumber":2,"parameterNumberName":"U-component_of_WINDS"},"data":[0,0,0,-1.9333,-1.9334,-1.9381,-1.9381,-1.945,-1.9451,0,0,0,0,0,0,0,0,0,0,0,-1.9325,-1.9325,-1.9333,-1.9334,-1.9381,-1.9381,-1.945,-1.9451,0,0,0,0,0,0,0,0,0,0,0,-1.9324,-1.9325,-1.9326,-1.9334,-1.9381,-1.9381,-1.945,-1.9411,0,0,0,0,0,0,0,0,0,0,-1.9364,-1.9362,-1.9325,-1.9326,-1.9335,-1.9381,-1.9381,-1.9409,-1.9414,-1.9433,0,-1.9452,0,-1.9453,-1.9456,-1.9457,0,0,0,-1.933,-1.9359,-1.9366,-1.9326,-1.9335,-1.9381,-1.9359,-1.9412,-1.9417,-1.9439,-1.9453,-1.9455,-1.9454,-1.9457,-1.9457,-1.9583,-1.9584,0,0,-1.9327,-1.9336,-1.9363,-1.937,-1.9363,-1.9357,-1.936,-1.9415,-1.943,-1.9453,-1.9457,-1.9455,-1.9457,-1.9458,-1.9582,-1.9583,0,0,0,-1.9323,-1.9335,-1.9341,-1.9367,-1.9375,-1.9359,-1.9362,-1.9428,-1.9429,-1.9457,-1.9456,-1.9458,-1.9459,-1.9581,-1.9582,-1.963,0,0,0,-1.9321,-1.9332,-1.934,-1.9346,-1.9374,-1.9402,-1.9374,-1.9425,-1.9431,-1.9455,-1.9458,-1.946,-1.958,-1.9582,-1.9626,-1.965,0,0,0,-1.932,-1.9332,-1.9341,-1.9346,-1.9366,-1.9401,-1.9405,-1.9426,-1.943,-1.9457,-1.946,-1.958,-1.9582,-1.9624,-1.9646,-1.9686,0,0,0,-1.9321,-1.9382,-1.9341,-1.9409,-1.9366,-1.943,-1.9404,-1.9451,-1.948,-1.9458,-1.958,-1.9582,-1.9623,-1.9643,-1.9683,-1.9721,-1.9737,0,0,-1.9403,-1.9392,-1.9431,-1.9396,-1.9469,-1.9422,-1.9502,-1.9519,-1.9514,-1.956,-1.9563,-1.9627,-1.9645,-1.9685,-1.9829,-1.9842,0,0,0,-1.946,-1.9488,-1.9506,-1.9533,-1.9548,-1.9562,-1.9566,-1.9573,-1.9612,-1.9539,-1.9653,-1.9663,-1.9686,-1.9704,-1.9715,-1.9734,-1.9591,-1.9591,-1.9591,-1.9589,-1.9578,-1.9642,-1.9637,-1.9664,-1.9667,-1.9688,-1.9697,-1.9679,-1.9706,-1.972,-1.9808,-1.9829,-1.9838,-1.9858,-1.9739,-1.9739,-1.974,-1.974,-1.9708,-1.9745,-1.972,-1.9772,-1.976,-1.9804,-1.981,-1.9796,-1.9835,-1.9797,-1.9817,-1.9776,-1.9853,-1.987,-1.9743,-1.9743,-1.9742,-1.9742,-1.9742,-1.979,-1.9807,-1.9813,-1.9851,-1.9882,-1.9875,-1.9914,-1.9902,-1.9891,-1.9911,-1.9923,-1.9923,-1.992,-1.9918,-1.9918,-1.9918,-1.9919,-1.9919,-1.9919,-1.9874,-1.988,-1.9914,-1.9934,-1.995,-1.9969,-1.9973,-1.9989,-2.0002,-1.9991,-1.9991,-1.997,-1.9863,-1.9835,-1.9924,-1.9923,-1.9922,-1.9922,-1.9921,-1.9998,-1.9967,-2.002,-2.0036,-2.0059,-2.009,-2.0074,-2.0106,-2.0117,-2.0137,-2.0111,-2.0034,-2.0022,-2.0013,-1.9991,-2.0114,-2.0114,-2.0114,-2.0114,-2.0067,-2.006,-2.0111,-2.0137,-2.0161,-2.0152,-2.0212,-2.0216,-2.0215,-2.0221,-2.0202,-2.0171,-2.0162,-2.0156,-2.0143,-2.0122,-2.0276,-2.0276,-2.0276,-2.0143,-2.0137,-2.019,-2.0189,-2.0206,-2.0221,-2.0277,-2.0307,-2.0301,-2.0283,-2.0226,-2.0219,-2.0169,-2.0154,-2.0134,-2.0116,-2.0076,0,0]},{"header":{"parameterUnit":"m.s-1","parameterCategory":1,"la1":30.2992,"la2":30.254,"lo1":-89.0895,"lo2":-89.0443,"dy":0.0025,"dx":0.0025,"nx":19,"ny":19,"refTime":"2026-05-17T09:00:00:Z","depth":0,"parameterNumber":3,"parameterNumberName":"V-component_of_WINDS"},"data":[0,0,0,4.7583,4.7585,4.7631,4.7631,4.7709,4.771,0,0,0,0,0,0,0,0,0,0,0,4.7583,4.7584,4.7583,4.7585,4.7631,4.7631,4.7709,4.771,0,0,0,0,0,0,0,0,0,0,0,4.7582,4.7583,4.7585,4.7585,4.7631,4.7631,4.7709,4.7667,0,0,0,0,0,0,0,0,0,0,4.7618,4.7631,4.7583,4.7585,4.7585,4.7631,4.7631,4.7665,4.767,4.7697,0,4.7726,0,4.772,4.7717,4.7717,0,0,0,4.7575,4.7627,4.7628,4.7585,4.7586,4.7631,4.7607,4.7667,4.7673,4.7704,4.7727,4.7729,4.7721,4.7717,4.7718,4.7909,4.791,0,0,4.7572,4.7598,4.7624,4.7632,4.7628,4.7606,4.7609,4.767,4.7697,4.7727,4.7731,4.7722,4.7718,4.7719,4.7908,4.7909,0,0,0,4.7571,4.7597,4.7595,4.7629,4.7636,4.7608,4.7611,4.7694,4.7692,4.7731,4.7723,4.7719,4.772,4.7906,4.7908,4.7998,0,0,0,4.7569,4.7596,4.7595,4.7611,4.7636,4.7666,4.7634,4.7687,4.7693,4.7723,4.7719,4.7721,4.7905,4.7907,4.7993,4.8036,0,0,0,4.7575,4.7596,4.7608,4.7612,4.7633,4.7665,4.7665,4.7688,4.7689,4.7717,4.7721,4.7904,4.7907,4.7987,4.8028,4.8091,0,0,0,4.7588,4.769,4.761,4.7719,4.7633,4.7721,4.7665,4.7729,4.7764,4.7719,4.7905,4.7908,4.7986,4.8023,4.8086,4.8148,4.8177,0,0,4.773,4.7708,4.7769,4.7699,4.7808,4.7712,4.7833,4.7841,4.7821,4.788,4.7885,4.7994,4.8027,4.809,4.8334,4.8357,0,0,0,4.7823,4.7867,4.7891,4.7925,4.7934,4.7943,4.793,4.7932,4.7981,4.7857,4.8035,4.8054,4.809,4.8118,4.8138,4.8165,4.7923,4.7923,4.7922,4.806,4.8027,4.8126,4.8098,4.8132,4.8116,4.8139,4.8139,4.8098,4.8141,4.8157,4.8309,4.8343,4.8358,4.8387,4.8189,4.819,4.819,4.819,4.8262,4.8318,4.8258,4.8332,4.8296,4.8358,4.8345,4.8313,4.8364,4.8295,4.8325,4.825,4.8384,4.8408,4.8197,4.8196,4.8195,4.8194,4.8194,4.8411,4.8432,4.8433,4.8476,4.8513,4.8481,4.8531,4.8498,4.8466,4.8496,4.8508,4.8506,4.8498,4.8505,4.8505,4.8506,4.8506,4.8506,4.8507,4.8565,4.8563,4.8609,4.8624,4.8639,4.8656,4.8639,4.8653,4.8659,4.863,4.863,4.8582,4.8405,4.8359,4.8515,4.8513,4.8512,4.8511,4.8511,4.8778,4.8723,4.8796,4.8811,4.8823,4.886,4.8816,4.8846,4.8853,4.8878,4.8824,4.8699,4.8673,4.8657,4.8619,4.8833,4.8833,4.8833,4.8833,4.8902,4.8885,4.8949,4.8974,4.8996,4.8962,4.9042,4.9029,4.9007,4.9008,4.8973,4.892,4.8906,4.8888,4.8867,4.8831,4.9093,4.9094,4.9094,4.9029,4.9012,4.9087,4.9064,4.907,4.9075,4.9148,4.9179,4.9143,4.9104,4.9008,4.8997,4.8911,4.8886,4.8843,4.8811,4.8743,0,0]}]]